Regional Weather Roundup
Issued by NWS

Home | Current Version | Previous Version | Text Only | Print | Product List | Glossary Off
Versions: 1 2 3 4 5 6 7 8 9 10 11 12 13 14 15 16 17 18 19 20 21 22 23 24 25 26 27 28 29 30 31 32 33 34 35 36 37 38 39 40 41 42 43 44 45 46 47 48 49 50

000
ASUS44 KOUN 220810
RWROK

WEATHER ROUNDUP FOR OKLAHOMA
NATIONAL WEATHER SERVICE NORMAN OK
300 AM CDT MON SEP 22 2014

NOTE: "FAIR" INDICATES FEW OR NO CLOUDS BELOW 12,000 FEET WITH NO
      SIGNIFICANT WEATHER AND/OR OBSTRUCTIONS TO VISIBILITY.

OKZ001>007-009>012-014-015-017-220900-
NORTHWEST OKLAHOMA AND THE PANHANDLE

CITY           SKY/WX    TMP DP  RH WIND       PRES   REMARKS
GAGE           CLEAR     55  52  89 NE3       30.27S
ENID/WOODRING  CLEAR     55  46  71 N5        30.24S
$$

OKZ016-021>023-033>039-044-045-220900-
SOUTHWEST OKLAHOMA

CITY           SKY/WX    TMP DP  RH WIND       PRES   REMARKS
LAWTON/REGL    CLOUDY    69  56  62 NE9       30.19S
FREDERICK      CLOUDY    68  58  70 NE8       30.16S
CLINTON        CLEAR     63  52  67 NE9       30.25F
HOBART         CLEAR     66  54  65 NE14      30.22S
ALTUS AFB      CLOUDY    72  52  49 NE9       30.20S
$$

OKZ018>020-024>031-220900-
CENTRAL OKLAHOMA

CITY           SKY/WX    TMP DP  RH WIND       PRES   REMARKS
OKLAHOMA CITY  CLEAR     65  50  58 NE7       30.22S
OKC/WILEY POST CLEAR     64  51  62 NE9       30.23S
OKC/TINKER AFB CLEAR     61  51  68 NE8       30.22S
STILLWATER     CLEAR     57  50  77 NE7       30.23S
GUTHRIE        CLEAR     60  51  72 NE6       30.23S
$$

OKZ008-013-054>072-220900-
NORTHEAST OKLAHOMA

CITY           SKY/WX    TMP DP  RH WIND       PRES   REMARKS
TULSA          CLEAR     57  52  83 N5        30.22S
TULSA/JONES    CLEAR     60  53  77 N3        30.22S
PONCA CITY     CLEAR     54  47  77 NE5       30.24S
BARTLESVILLE   CLEAR     58  51  78 N5        30.25R
MUSKOGEE       CLEAR     59  53  80 N3        30.21S
$$

OKZ032-040>043-046>053-073>077-220900-
SOUTH CENTRAL/SOUTHEAST OKLAHOMA

CITY           SKY/WX    TMP DP  RH WIND       PRES   REMARKS
ARDMORE/DWNTWN MOCLDY    70  52  52 NE7       30.17S
MCALESTER      CLEAR     58  54  86 MISG      30.19R
$$



USA.gov is the U.S. government's official web portal to all federal, state and local government web resources and services.